This demonstration page uses our WeatherBlox Daily Observations layout. Learn more.

Left ArrowRight Arrow

41.86663, -103.66717

Hourly Observations for September 14, 2021

Temp ( °F °C ) Dew Point ( °F °C ) Humidity (%) Winds ( mph kmh ) Pressure ( in mb ) Visibility ( mi km ) Precip ( " mm )
12:53 am 00:53 Partly Cloudy 61 16.1 52 11.1 72 72 ENE 8 13 29.91 1013 10 16 0.00 0.00
1:53 am 01:53 Clear 60 15.6 52 11.1 75 75 E 5 7 29.90 1012 10 16 0.00 0.00
2:53 am 02:53 Clear 59 15 52 11.1 78 78 E 8 13 29.88 1012 10 16 0.00 0.00
3:53 am 03:53 Clear 58 14.4 52 11.1 81 81 ENE 9 15 29.88 1012 10 16 0.00 0.00
4:53 am 04:53 Clear 58 14.4 48 8.9 70 70 NE 23 37 29.93 1014 10 16 0.00 0.00
5:53 am 05:53 Mostly Clear 56 13.3 47 8.3 72 72 undefined N/A 29.96 1015 10 16 0.00 0.00
6:53 am 06:53 Mostly Cloudy 57 13.9 46 7.8 67 67 ENE 14 22 30.01 1016 10 16 0.00 0.00
7:53 am 07:53 Cloudy 59 15 46 7.8 62 62 VRB 5 7 30.06 1018 10 16 0.00 0.00
8:53 am 08:53 Cloudy 60 15.6 46 7.8 60 60 S 10 17 30.05 1018 10 16 0.00 0.00
9:53 am 09:53 Mostly Cloudy 66 18.9 46 7.8 49 49 SE 9 15 30.04 1017 10 16 0.00 0.00
10:53 am 10:53 Sunny 72 22.2 46 7.8 40 40 SE 10 17 30.03 1017 10 16 0.00 0.00
11:53 am 11:53 Sunny 73 22.8 46 7.8 38 38 Calm 30.01 1016 10 16 0.00 0.00
12:53 pm 12:53 Sunny 75 23.9 45 7.2 34 34 Calm 29.98 1015 10 16 0.00 0.00
1:53 pm 13:53 Sunny 76 24.4 45 7.2 33 33 SE 9 15 29.96 1015 10 16 0.00 0.00
2:53 pm 14:53 Sunny 78 25.6 44 6.7 30 30 VRB 7 11 29.93 1014 10 16 0.00 0.00
3:53 pm 15:53 Sunny 78 25.6 45 7.2 31 31 E 9 15 29.91 1013 10 16 0.00 0.00
4:53 pm 16:53 Sunny 79 26.1 45 7.2 30 30 E 10 17 29.89 1012 10 16 0.00 0.00
5:53 pm 17:53 Sunny 78 25.6 46 7.8 32 32 E 15 24 29.89 1012 10 16 0.00 0.00
6:53 pm 18:53 Sunny 72 22.2 47 8.3 41 41 ESE 13 20 29.90 1012 10 16 0.00 0.00
7:53 pm 19:53 Clear 68 20 48 8.9 49 49 ESE 14 22 29.90 1013 10 16 0.00 0.00
8:53 pm 20:53 Clear 65 18.3 49 9.4 56 56 ESE 12 19 29.92 1013 10 16 0.00 0.00
9:53 pm 21:53 Mostly Clear 63 17.2 49 9.4 60 60 ESE 10 17 29.92 1013 10 16 0.00 0.00
10:53 pm 22:53 Clear 60 15.6 49 9.4 67 67 ESE 10 17 29.91 1013 10 16 0.00 0.00
11:53 pm 23:53 Clear 60 15.6 50 10 70 70 ESE 10 17 29.89 1012 10 16 0.00 0.00

Powered by AerisWeather